Time,TemperatureF,DewpointF,PressureIn,WindDirection,WindDirectionDegrees,WindSpeedMPH,WindSpeedGustMPH,Humidity,HourlyPrecipIn,Conditions,Clouds,dailyrainin,SoftwareType,DateUTC
2013-11-06 00:04:00,20.1,1.2,23.54,SSE,154,0.0,0.0,43,0.00,,---,0.00,VWS V14.00,2013-11-06 07:04:00,
2013-11-06 00:09:00,19.9,1.1,23.54,SSE,154,0.0,0.0,43,0.00,,---,0.00,VWS V14.00,2013-11-06 07:09:00,
2013-11-06 00:14:00,19.6,0.7,23.54,SSE,154,0.0,0.0,43,0.00,,---,0.00,VWS V14.00,2013-11-06 07:14:00,
2013-11-06 00:19:00,19.4,0.6,23.54,SSE,154,0.0,0.0,43,0.00,,---,0.00,VWS V14.00,2013-11-06 07:19:00,
2013-11-06 00:24:00,19.4,0.6,23.54,SSE,154,0.0,0.0,43,0.00,,---,0.00,VWS V14.00,2013-11-06 07:24:00,
2013-11-06 00:29:00,19.2,0.4,23.54,SSE,154,0.0,0.0,43,0.00,,---,0.00,VWS V14.00,2013-11-06 07:29:00,
2013-11-06 00:34:00,19.2,0.4,23.54,SSE,154,0.0,0.0,43,0.00,,---,0.00,VWS V14.00,2013-11-06 07:34:00,
2013-11-06 00:39:00,19.2,0.4,23.54,SSE,154,0.0,0.0,43,0.00,,---,0.00,VWS V14.00,2013-11-06 07:39:00,
2013-11-06 00:44:00,19.0,0.2,23.54,SSE,154,0.0,0.0,43,0.00,,---,0.00,VWS V14.00,2013-11-06 07:44:00,
2013-11-06 00:49:00,18.9,0.1,23.54,SSE,154,0.0,0.0,43,0.00,,---,0.00,VWS V14.00,2013-11-06 07:49:00,
2013-11-06 00:55:00,18.7,-0.1,23.54,SSE,154,0.0,0.0,43,0.00,,---,0.00,VWS V14.00,2013-11-06 07:55:00,
2013-11-06 01:00:00,18.7,-0.1,23.54,SSE,154,0.0,0.0,43,0.00,,---,0.00,VWS V14.00,2013-11-06 08:00:00,
2013-11-06 01:05:00,18.5,-0.3,23.54,SSE,154,0.0,0.0,43,0.00,,---,0.00,VWS V14.00,2013-11-06 08:05:00,
2013-11-06 01:10:00,18.5,-0.3,23.54,SSE,154,0.0,0.0,43,0.00,,---,0.00,VWS V14.00,2013-11-06 08:10:00,
2013-11-06 01:15:00,18.5,-0.3,23.54,SSE,154,0.0,0.0,43,0.00,,---,0.00,VWS V14.00,2013-11-06 08:15:00,
2013-11-06 01:20:00,18.5,-0.3,23.54,SSE,154,0.0,0.0,43,0.00,,---,0.00,VWS V14.00,2013-11-06 08:20:00,
2013-11-06 01:25:00,18.3,-0.4,23.54,SSE,154,0.0,0.0,43,0.00,,---,0.00,VWS V14.00,2013-11-06 08:25:00,
2013-11-06 01:30:00,18.3,-0.4,23.54,SSE,154,0.0,0.0,43,0.00,,---,0.00,VWS V14.00,2013-11-06 08:30:00,
2013-11-06 01:35:00,18.1,-0.6,23.56,SSE,154,0.0,0.0,43,0.00,,---,0.00,VWS V14.00,2013-11-06 08:35:00,
2013-11-06 01:40:00,18.1,-0.6,23.56,SSE,154,0.0,0.0,43,0.00,,---,0.00,VWS V14.00,2013-11-06 08:40:00,
2013-11-06 01:45:00,18.0,-0.8,23.56,SSE,154,0.0,0.0,43,0.00,,---,0.00,VWS V14.00,2013-11-06 08:45:00,
2013-11-06 01:50:00,17.8,-0.9,23.56,SSE,154,0.0,0.0,43,0.00,,---,0.00,VWS V14.00,2013-11-06 08:50:00,
2013-11-06 01:55:00,17.6,-0.6,23.56,SSE,154,0.0,0.0,44,0.00,,---,0.00,VWS V14.00,2013-11-06 08:55:00,
2013-11-06 02:01:00,17.4,-0.8,23.56,SSE,154,0.0,0.0,44,0.00,,---,0.00,VWS V14.00,2013-11-06 09:01:00,
2013-11-06 02:06:00,17.4,-0.8,23.56,SSE,154,0.0,0.0,44,0.00,,---,0.00,VWS V14.00,2013-11-06 09:06:00,
2013-11-06 02:11:00,17.2,-0.9,23.56,SSE,154,0.0,0.0,44,0.00,,---,0.00,VWS V14.00,2013-11-06 09:11:00,
2013-11-06 02:16:00,17.1,-1.1,23.56,SSE,154,0.0,0.0,44,0.00,,---,0.00,VWS V14.00,2013-11-06 09:16:00,
2013-11-06 02:21:00,16.9,-1.2,23.56,SSE,154,0.0,0.0,44,0.00,,---,0.00,VWS V14.00,2013-11-06 09:21:00,
2013-11-06 02:26:00,16.7,-1.4,23.56,SSE,154,0.0,0.0,44,0.00,,---,0.00,VWS V14.00,2013-11-06 09:26:00,
2013-11-06 02:31:00,16.7,-1.4,23.56,SSE,154,0.0,0.0,44,0.00,,---,0.00,VWS V14.00,2013-11-06 09:31:00,
2013-11-06 02:36:00,16.5,-1.6,23.56,SSE,154,0.0,0.0,44,0.00,,---,0.00,VWS V14.00,2013-11-06 09:36:00,
2013-11-06 02:41:00,16.3,-1.7,23.56,SSE,154,0.0,0.0,44,0.00,,---,0.00,VWS V14.00,2013-11-06 09:41:00,
2013-11-06 02:46:00,16.2,-1.9,23.56,SSE,154,0.0,0.0,44,0.00,,---,0.00,VWS V14.00,2013-11-06 09:46:00,
2013-11-06 02:51:00,16.2,-1.9,23.56,SSE,154,0.0,0.0,44,0.00,,---,0.00,VWS V14.00,2013-11-06 09:51:00,
2013-11-06 02:56:00,16.2,-1.9,23.56,SSE,154,0.0,0.0,44,0.00,,---,0.00,VWS V14.00,2013-11-06 09:56:00,
2013-11-06 03:01:00,16.0,-2.1,23.56,SSE,154,0.0,0.0,44,0.00,,---,0.00,VWS V14.00,2013-11-06 10:01:00,
2013-11-06 03:06:00,15.8,-2.2,23.56,SSE,154,0.0,0.0,44,0.00,,---,0.00,VWS V14.00,2013-11-06 10:06:00,
2013-11-06 03:11:00,15.8,-2.2,23.56,SSE,154,0.0,0.0,44,0.00,,---,0.00,VWS V14.00,2013-11-06 10:11:00,
2013-11-06 03:16:00,15.6,-2.4,23.56,SSE,154,0.0,0.0,44,0.00,,---,0.00,VWS V14.00,2013-11-06 10:16:00,
2013-11-06 03:21:00,15.4,-2.6,23.56,SSE,154,0.0,0.0,44,0.00,,---,0.00,VWS V14.00,2013-11-06 10:21:00,
2013-11-06 03:26:00,15.4,-2.6,23.56,SSE,154,0.0,0.0,44,0.00,,---,0.00,VWS V14.00,2013-11-06 10:26:00,
2013-11-06 03:31:00,15.3,-2.7,23.56,SSE,154,0.0,0.0,44,0.00,,---,0.00,VWS V14.00,2013-11-06 10:31:00,
2013-11-06 03:36:00,15.1,-2.9,23.56,SSE,154,0.0,0.0,44,0.00,,---,0.00,VWS V14.00,2013-11-06 10:36:00,
2013-11-06 03:41:00,14.9,-3.1,23.56,SSE,154,0.0,0.0,44,0.00,,---,0.00,VWS V14.00,2013-11-06 10:41:00,
2013-11-06 03:46:00,14.9,-3.1,23.56,SSE,154,0.0,0.0,44,0.00,,---,0.00,VWS V14.00,2013-11-06 10:46:00,
2013-11-06 03:51:00,14.9,-3.1,23.56,SSE,154,0.0,0.0,44,0.00,,---,0.00,VWS V14.00,2013-11-06 10:51:00,
2013-11-06 03:57:00,14.9,-3.1,23.56,SSE,154,0.0,0.0,44,0.00,,---,0.00,VWS V14.00,2013-11-06 10:57:00,
2013-11-06 04:02:00,14.5,-3.4,23.56,SSE,154,0.0,0.0,44,0.00,,---,0.00,VWS V14.00,2013-11-06 11:02:00,
2013-11-06 04:07:00,14.5,-3.4,23.56,SSE,154,0.0,0.0,44,0.00,,---,0.00,VWS V14.00,2013-11-06 11:07:00,
2013-11-06 04:12:00,14.4,-3.6,23.56,SSE,154,0.0,0.0,44,0.00,,---,0.00,VWS V14.00,2013-11-06 11:12:00,
2013-11-06 04:17:00,14.4,-3.6,23.56,SSE,154,0.0,0.0,44,0.00,,---,0.00,VWS V14.00,2013-11-06 11:17:00,
2013-11-06 04:22:00,14.2,-3.7,23.56,SSE,154,0.0,0.0,44,0.00,,---,0.00,VWS V14.00,2013-11-06 11:22:00,
2013-11-06 04:27:00,14.2,-3.7,23.56,SSE,154,0.0,0.0,44,0.00,,---,0.00,VWS V14.00,2013-11-06 11:27:00,
2013-11-06 04:32:00,14.2,-3.7,23.56,SSE,154,0.0,0.0,44,0.00,,---,0.00,VWS V14.00,2013-11-06 11:32:00,
2013-11-06 04:37:00,14.2,-3.7,23.56,SSE,154,0.0,0.0,44,0.00,,---,0.00,VWS V14.00,2013-11-06 11:37:00,
2013-11-06 04:42:00,14.0,-3.4,23.56,SSE,154,0.0,0.0,45,0.00,,---,0.00,VWS V14.00,2013-11-06 11:42:00,
2013-11-06 04:47:00,13.8,-3.6,23.56,SSE,154,0.0,0.0,45,0.00,,---,0.00,VWS V14.00,2013-11-06 11:47:00,
2013-11-06 04:52:00,13.8,-3.6,23.56,SSE,154,0.0,0.0,45,0.00,,---,0.00,VWS V14.00,2013-11-06 11:52:00,
2013-11-06 04:57:00,13.8,-3.6,23.56,SSE,154,0.0,0.0,45,0.00,,---,0.00,VWS V14.00,2013-11-06 11:57:00,
2013-11-06 05:03:00,13.6,-3.8,23.56,SSE,154,0.0,0.0,45,0.00,,---,0.00,VWS V14.00,2013-11-06 12:03:00,
2013-11-06 05:08:00,13.5,-3.9,23.56,SSE,154,0.0,0.0,45,0.00,,---,0.00,VWS V14.00,2013-11-06 12:08:00,
2013-11-06 05:13:00,13.5,-3.9,23.56,SSE,154,0.0,0.0,45,0.00,,---,0.00,VWS V14.00,2013-11-06 12:13:00,
2013-11-06 05:18:00,13.5,-3.9,23.56,SSE,154,0.0,0.0,45,0.00,,---,0.00,VWS V14.00,2013-11-06 12:18:00,
2013-11-06 05:23:00,13.3,-4.1,23.56,SSE,154,0.0,0.0,45,0.00,,---,0.00,VWS V14.00,2013-11-06 12:23:00,
2013-11-06 05:28:00,13.5,-3.9,23.56,SSE,154,0.0,0.0,45,0.00,,---,0.00,VWS V14.00,2013-11-06 12:28:00,
2013-11-06 05:33:00,13.5,-3.9,23.59,SSE,154,0.0,0.0,45,0.00,,---,0.00,VWS V14.00,2013-11-06 12:33:00,
2013-11-06 05:38:00,13.3,-4.1,23.59,SSE,154,0.0,0.0,45,0.00,,---,0.00,VWS V14.00,2013-11-06 12:38:00,
2013-11-06 05:43:00,13.3,-4.1,23.59,SSE,154,0.0,0.0,45,0.00,,---,0.00,VWS V14.00,2013-11-06 12:43:00,
2013-11-06 05:51:00,13.1,-4.2,23.59,SSE,154,0.0,0.0,45,0.00,,---,0.00,VWS V14.00,2013-11-06 12:51:00,
2013-11-06 05:56:00,13.1,-4.2,23.59,SSE,154,0.0,0.0,45,0.00,,---,0.00,VWS V14.00,2013-11-06 12:56:00,
2013-11-06 06:01:00,12.9,-4.4,23.59,SSE,154,0.0,0.0,45,0.00,,---,0.00,VWS V14.00,2013-11-06 13:01:00,
2013-11-06 06:06:00,12.9,-4.4,23.59,SSE,154,0.0,0.0,45,0.00,,---,0.00,VWS V14.00,2013-11-06 13:06:00,
2013-11-06 06:11:00,12.9,-4.4,23.59,SSE,154,0.0,0.0,45,0.00,,---,0.00,VWS V14.00,2013-11-06 13:11:00,
2013-11-06 06:17:00,12.7,-4.6,23.59,SSE,154,0.0,0.0,45,0.00,,---,0.00,VWS V14.00,2013-11-06 13:17:00,
2013-11-06 06:22:00,12.7,-4.6,23.59,SSE,154,0.0,0.0,45,0.00,,---,0.00,VWS V14.00,2013-11-06 13:22:00,
2013-11-06 06:27:00,12.7,-4.6,23.59,SSE,154,0.0,0.0,45,0.00,,---,0.00,VWS V14.00,2013-11-06 13:27:00,
2013-11-06 06:32:00,12.7,-4.6,23.59,SSE,154,0.0,0.0,45,0.00,,---,0.00,VWS V14.00,2013-11-06 13:32:00,
2013-11-06 06:38:00,12.7,-4.6,23.59,SSE,154,0.0,0.0,45,0.00,,---,0.00,VWS V14.00,2013-11-06 13:38:00,
2013-11-06 06:43:00,12.7,-4.6,23.59,SSE,154,0.0,0.0,45,0.00,,---,0.00,VWS V14.00,2013-11-06 13:43:00,
2013-11-06 06:48:00,12.7,-4.6,23.59,SSE,154,0.0,0.0,45,0.00,,---,0.00,VWS V14.00,2013-11-06 13:48:00,
2013-11-06 06:53:00,12.7,-4.6,23.59,SSE,154,0.0,0.0,45,0.00,,---,0.00,VWS V14.00,2013-11-06 13:53:00,
2013-11-06 06:58:00,12.7,-4.6,23.59,SSE,154,0.0,0.0,45,0.00,,---,0.00,VWS V14.00,2013-11-06 13:58:00,
2013-11-06 07:03:00,12.7,-4.6,23.59,SSE,154,0.0,0.0,45,0.00,,---,0.00,VWS V14.00,2013-11-06 14:03:00,
2013-11-06 07:08:00,12.7,-4.6,23.59,SSE,154,0.0,0.0,45,0.00,,---,0.00,VWS V14.00,2013-11-06 14:08:00,
2013-11-06 07:13:00,12.7,-4.6,23.59,SSE,154,0.0,0.0,45,0.00,,---,0.00,VWS V14.00,2013-11-06 14:13:00,
2013-11-06 07:18:00,12.7,-4.6,23.59,SSE,154,0.0,0.0,45,0.00,,---,0.00,VWS V14.00,2013-11-06 14:18:00,
2013-11-06 07:23:00,12.9,-4.4,23.59,SSE,154,0.0,0.0,45,0.00,,---,0.00,VWS V14.00,2013-11-06 14:23:00,
2013-11-06 07:28:00,13.1,-4.2,23.59,SSE,154,0.0,0.0,45,0.00,,---,0.00,VWS V14.00,2013-11-06 14:28:00,
2013-11-06 07:33:00,13.5,-3.9,23.59,SSE,154,0.0,0.0,45,0.00,,---,0.00,VWS V14.00,2013-11-06 14:33:00,
2013-11-06 07:38:00,13.8,-3.6,23.59,SSE,154,0.0,0.0,45,0.00,,---,0.00,VWS V14.00,2013-11-06 14:38:00,
2013-11-06 07:44:00,14.4,-3.6,23.59,SSE,154,0.0,0.0,44,0.00,,---,0.00,VWS V14.00,2013-11-06 14:44:00,
2013-11-06 07:49:00,14.9,-3.1,23.59,SSE,154,0.0,0.0,44,0.00,,---,0.00,VWS V14.00,2013-11-06 14:49:00,
2013-11-06 07:54:00,15.4,-2.6,23.59,SSE,154,0.0,0.0,44,0.00,,---,0.00,VWS V14.00,2013-11-06 14:54:00,
2013-11-06 07:59:00,16.3,-1.7,23.59,SSE,154,0.0,0.0,44,0.00,,---,0.00,VWS V14.00,2013-11-06 14:59:00,
2013-11-06 08:04:00,17.1,-1.1,23.62,SSE,154,0.0,0.0,44,0.00,,---,0.00,VWS V14.00,2013-11-06 15:04:00,
2013-11-06 08:09:00,17.8,-0.9,23.62,SSE,154,0.0,0.0,43,0.00,,---,0.00,VWS V14.00,2013-11-06 15:09:00,
2013-11-06 08:14:00,18.7,-0.1,23.62,SSE,154,0.0,0.0,43,0.00,,---,0.00,VWS V14.00,2013-11-06 15:14:00,
2013-11-06 08:19:00,19.8,0.9,23.62,SSE,154,0.0,0.0,43,0.00,,---,0.00,VWS V14.00,2013-11-06 15:19:00,
2013-11-06 08:24:00,20.7,1.7,23.62,SSE,154,0.0,0.0,43,0.00,,---,0.00,VWS V14.00,2013-11-06 15:24:00,
2013-11-06 08:29:00,21.7,2.7,23.62,SSE,154,0.0,0.0,43,0.00,,---,0.00,VWS V14.00,2013-11-06 15:29:00,
2013-11-06 08:34:00,23.0,3.8,23.62,SSE,154,0.0,0.0,43,0.00,,---,0.00,VWS V14.00,2013-11-06 15:34:00,
2013-11-06 08:39:00,24.1,4.3,23.62,SSE,147,0.0,0.0,42,0.00,,---,0.00,VWS V14.00,2013-11-06 15:39:00,
2013-11-06 08:44:00,25.2,5.3,23.62,SSE,147,0.0,0.0,42,0.00,,---,0.00,VWS V14.00,2013-11-06 15:44:00,
2013-11-06 08:49:00,26.1,6.1,23.62,SSE,147,0.0,0.0,42,0.00,,---,0.00,VWS V14.00,2013-11-06 15:49:00,
2013-11-06 08:54:00,27.0,6.4,23.62,SSE,147,0.0,0.0,41,0.00,,---,0.00,VWS V14.00,2013-11-06 15:54:00,
2013-11-06 08:59:00,28.4,7.7,23.62,East,81,0.0,2.7,41,0.00,,---,0.00,VWS V14.00,2013-11-06 15:59:00,
2013-11-06 09:04:00,30.4,9.5,23.62,ESE,119,2.2,2.2,41,0.00,,---,0.00,VWS V14.00,2013-11-06 16:04:00,
2013-11-06 09:09:00,31.8,10.8,23.62,ENE,70,3.6,3.6,41,0.00,,---,0.00,VWS V14.00,2013-11-06 16:09:00,
2013-11-06 09:14:00,32.9,11.8,23.62,SSE,150,8.1,8.1,41,0.00,,---,0.00,VWS V14.00,2013-11-06 16:14:00,
2013-11-06 09:19:00,34.0,12.2,23.62,East,95,3.1,6.3,40,0.00,,---,0.00,VWS V14.00,2013-11-06 16:19:00,
2013-11-06 09:24:00,34.7,12.9,23.62,ESE,103,3.1,3.1,40,0.00,,---,0.00,VWS V14.00,2013-11-06 16:24:00,
2013-11-06 09:29:00,35.4,13.5,23.62,SE,134,5.8,5.8,40,0.00,,---,0.00,VWS V14.00,2013-11-06 16:29:00,
2013-11-06 09:34:00,36.1,14.2,23.62,ESE,118,5.4,5.4,40,0.00,,---,0.00,VWS V14.00,2013-11-06 16:34:00,
2013-11-06 09:39:00,36.7,14.6,23.62,ESE,117,4.9,6.3,40,0.00,,---,0.00,VWS V14.00,2013-11-06 16:39:00,
2013-11-06 09:44:00,37.0,15.0,23.62,East,87,3.1,6.3,40,0.00,,---,0.00,VWS V14.00,2013-11-06 16:44:00,
2013-11-06 09:49:00,37.6,14.9,23.62,East,82,3.1,3.1,39,0.00,,---,0.00,VWS V14.00,2013-11-06 16:49:00,
2013-11-06 09:54:00,38.1,15.4,23.62,SE,145,4.0,5.4,39,0.00,,---,0.00,VWS V14.00,2013-11-06 16:54:00,
2013-11-06 09:59:00,38.7,15.9,23.62,East,97,4.0,5.4,39,0.00,,---,0.00,VWS V14.00,2013-11-06 16:59:00,
2013-11-06 10:04:00,39.2,16.3,23.62,SE,143,3.1,4.0,39,0.00,,---,0.00,VWS V14.00,2013-11-06 17:04:00,
2013-11-06 10:10:00,39.7,16.8,23.62,SSE,161,3.1,5.4,39,0.00,,---,0.00,VWS V14.00,2013-11-06 17:10:00,
2013-11-06 10:15:00,40.3,17.3,23.62,SSE,158,3.6,4.0,39,0.00,,---,0.00,VWS V14.00,2013-11-06 17:15:00,
2013-11-06 10:20:00,40.6,17.6,23.62,SSE,147,2.7,5.4,39,0.00,,---,0.00,VWS V14.00,2013-11-06 17:20:00,
2013-11-06 10:25:00,41.2,18.1,23.62,SE,130,5.8,5.8,39,0.00,,---,0.00,VWS V14.00,2013-11-06 17:25:00,
2013-11-06 10:30:00,41.5,18.4,23.62,SSE,163,2.7,6.3,39,0.00,,---,0.00,VWS V14.00,2013-11-06 17:30:00,
2013-11-06 10:35:00,42.3,19.1,23.62,ESE,118,4.5,5.4,39,0.00,,---,0.00,VWS V14.00,2013-11-06 17:35:00,
2013-11-06 10:40:00,42.4,19.2,23.62,SE,129,4.9,4.9,39,0.00,,---,0.00,VWS V14.00,2013-11-06 17:40:00,
2013-11-06 10:45:00,43.0,19.1,23.62,ENE,76,3.6,3.6,38,0.00,,---,0.00,VWS V14.00,2013-11-06 17:45:00,
2013-11-06 10:50:00,43.3,19.5,23.62,SE,127,4.9,5.4,38,0.00,,---,0.00,VWS V14.00,2013-11-06 17:50:00,
2013-11-06 10:55:00,43.5,19.6,23.62,East,101,2.7,2.7,38,0.00,,---,0.00,VWS V14.00,2013-11-06 17:55:00,
2013-11-06 11:00:00,44.1,20.1,23.62,East,97,4.0,4.9,38,0.00,,---,0.00,VWS V14.00,2013-11-06 18:00:00,
2013-11-06 11:05:00,44.1,20.1,23.62,NE,55,3.1,4.9,38,0.00,,---,0.00,VWS V14.00,2013-11-06 18:05:00,
2013-11-06 11:10:00,44.6,20.6,23.62,ESE,118,5.8,8.7,38,0.00,,---,0.00,VWS V14.00,2013-11-06 18:10:00,
2013-11-06 11:15:00,44.6,20.6,23.62,ENE,75,2.2,4.0,38,0.00,,---,0.00,VWS V14.00,2013-11-06 18:15:00,
2013-11-06 11:20:00,45.0,20.9,23.62,ESE,112,4.0,5.4,38,0.00,,---,0.00,VWS V14.00,2013-11-06 18:20:00,
2013-11-06 11:25:00,45.5,21.4,23.62,SE,137,2.7,5.4,38,0.00,,---,0.00,VWS V14.00,2013-11-06 18:25:00,
2013-11-06 11:30:00,45.9,21.7,23.62,ESE,123,0.0,4.0,38,0.00,,---,0.00,VWS V14.00,2013-11-06 18:30:00,
2013-11-06 11:35:00,46.4,21.6,23.62,SSE,153,4.0,5.4,37,0.00,,---,0.00,VWS V14.00,2013-11-06 18:35:00,
2013-11-06 11:40:00,46.9,22.0,23.62,SE,142,3.6,4.5,37,0.00,,---,0.00,VWS V14.00,2013-11-06 18:40:00,
2013-11-06 11:45:00,47.1,22.2,23.62,SE,140,4.0,6.3,37,0.00,,---,0.00,VWS V14.00,2013-11-06 18:45:00,
2013-11-06 11:50:00,46.9,22.0,23.62,NNE,15,5.4,6.3,37,0.00,,---,0.00,VWS V14.00,2013-11-06 18:50:00,
2013-11-06 11:55:00,46.9,22.0,23.62,SE,134,5.8,7.6,37,0.00,,---,0.00,VWS V14.00,2013-11-06 18:55:00,
2013-11-06 12:01:00,47.1,22.2,23.62,ESE,110,4.0,4.9,37,0.00,,---,0.00,VWS V14.00,2013-11-06 19:01:00,
2013-11-06 12:06:00,47.7,22.7,23.62,NE,44,3.1,4.0,37,0.00,,---,0.00,VWS V14.00,2013-11-06 19:06:00,
2013-11-06 12:11:00,47.7,22.7,23.62,ESE,123,3.1,7.6,37,0.00,,---,0.00,VWS V14.00,2013-11-06 19:11:00,
2013-11-06 12:16:00,47.7,22.7,23.62,ESE,121,3.6,5.8,37,0.00,,---,0.00,VWS V14.00,2013-11-06 19:16:00,
2013-11-06 12:21:00,47.7,22.7,23.59,East,100,6.3,6.3,37,0.00,,---,0.00,VWS V14.00,2013-11-06 19:21:00,
2013-11-06 12:26:00,48.2,23.2,23.59,East,99,8.1,8.1,37,0.00,,---,0.00,VWS V14.00,2013-11-06 19:26:00,
2013-11-06 12:31:00,48.4,23.3,23.59,ENE,61,3.6,3.6,37,0.00,,---,0.00,VWS V14.00,2013-11-06 19:31:00,
2013-11-06 12:36:00,48.7,23.6,23.59,SE,131,2.7,3.6,37,0.00,,---,0.00,VWS V14.00,2013-11-06 19:36:00,
2013-11-06 12:41:00,49.1,24.0,23.59,ESE,105,5.4,5.8,37,0.00,,---,0.00,VWS V14.00,2013-11-06 19:41:00,
2013-11-06 12:46:00,49.1,24.0,23.59,SE,140,6.3,6.3,37,0.00,,---,0.00,VWS V14.00,2013-11-06 19:46:00,
2013-11-06 12:51:00,49.1,24.0,23.59,East,100,5.8,7.6,37,0.00,,---,0.00,VWS V14.00,2013-11-06 19:51:00,
2013-11-06 12:56:00,49.1,24.0,23.59,East,86,5.4,8.7,37,0.00,,---,0.00,VWS V14.00,2013-11-06 19:56:00,
2013-11-06 13:01:00,49.1,24.0,23.59,ESE,106,5.4,5.4,37,0.00,,---,0.00,VWS V14.00,2013-11-06 20:01:00,
2013-11-06 13:06:00,49.1,24.0,23.59,SE,143,6.7,6.7,37,0.00,,---,0.00,VWS V14.00,2013-11-06 20:06:00,
2013-11-06 13:11:00,48.7,23.6,23.59,ESE,116,6.3,6.3,37,0.00,,---,0.00,VWS V14.00,2013-11-06 20:11:00,
2013-11-06 13:16:00,48.7,23.6,23.59,SSE,149,5.4,6.3,37,0.00,,---,0.00,VWS V14.00,2013-11-06 20:16:00,
2013-11-06 13:21:00,48.7,23.6,23.59,SE,146,5.8,6.3,37,0.00,,---,0.00,VWS V14.00,2013-11-06 20:21:00,
2013-11-06 13:26:00,48.7,23.6,23.59,SSE,160,4.0,4.0,37,0.00,,---,0.00,VWS V14.00,2013-11-06 20:26:00,
2013-11-06 13:31:00,48.9,23.8,23.59,ESE,104,3.6,5.8,37,0.00,,---,0.00,VWS V14.00,2013-11-06 20:31:00,
2013-11-06 13:36:00,48.9,23.8,23.59,ESE,115,3.1,5.4,37,0.00,,---,0.00,VWS V14.00,2013-11-06 20:36:00,
2013-11-06 13:41:00,48.7,23.6,23.59,ESE,115,5.4,5.4,37,0.00,,---,0.00,VWS V14.00,2013-11-06 20:41:00,
2013-11-06 13:46:00,48.7,23.6,23.59,SE,141,4.0,6.3,37,0.00,,---,0.00,VWS V14.00,2013-11-06 20:46:00,
2013-11-06 13:52:00,48.9,23.8,23.59,NE,55,4.0,5.8,37,0.00,,---,0.00,VWS V14.00,2013-11-06 20:52:00,
2013-11-06 13:57:00,48.9,23.8,23.59,ENE,65,3.1,5.8,37,0.00,,---,0.00,VWS V14.00,2013-11-06 20:57:00,
2013-11-06 14:02:00,48.7,23.6,23.59,East,83,3.6,5.8,37,0.00,,---,0.00,VWS V14.00,2013-11-06 21:02:00,
2013-11-06 14:07:00,48.7,23.6,23.59,ESE,112,5.4,7.6,37,0.00,,---,0.00,VWS V14.00,2013-11-06 21:07:00,
2013-11-06 14:12:00,48.7,23.6,23.59,ESE,111,4.0,4.5,37,0.00,,---,0.00,VWS V14.00,2013-11-06 21:12:00,
2013-11-06 14:17:00,48.9,23.8,23.59,South,173,10.1,10.1,37,0.00,,---,0.00,VWS V14.00,2013-11-06 21:17:00,
2013-11-06 14:22:00,48.9,23.8,23.59,East,100,5.4,5.4,37,0.00,,---,0.00,VWS V14.00,2013-11-06 21:22:00,
2013-11-06 14:27:00,48.7,23.6,23.59,NE,35,3.1,4.9,37,0.00,,---,0.00,VWS V14.00,2013-11-06 21:27:00,
2013-11-06 14:32:00,48.7,23.6,23.59,ESE,110,5.4,5.4,37,0.00,,---,0.00,VWS V14.00,2013-11-06 21:32:00,
2013-11-06 14:37:00,48.7,23.6,23.59,North,11,2.2,4.9,37,0.00,,---,0.00,VWS V14.00,2013-11-06 21:37:00,
2013-11-06 14:42:00,48.7,23.6,23.59,ENE,70,4.5,5.4,37,0.00,,---,0.00,VWS V14.00,2013-11-06 21:42:00,
2013-11-06 14:47:00,48.7,23.6,23.59,ESE,108,4.9,4.9,37,0.00,,---,0.00,VWS V14.00,2013-11-06 21:47:00,
2013-11-06 14:52:00,48.9,23.8,23.59,ESE,120,5.4,5.4,37,0.00,,---,0.00,VWS V14.00,2013-11-06 21:52:00,
2013-11-06 14:57:00,48.7,23.6,23.59,ESE,119,3.6,3.6,37,0.00,,---,0.00,VWS V14.00,2013-11-06 21:57:00,
2013-11-06 15:02:00,48.7,23.6,23.59,East,92,5.4,5.4,37,0.00,,---,0.00,VWS V14.00,2013-11-06 22:02:00,
2013-11-06 15:07:00,48.7,23.6,23.59,East,97,3.6,6.3,37,0.00,,---,0.00,VWS V14.00,2013-11-06 22:07:00,
2013-11-06 15:12:00,48.6,23.5,23.59,ESE,103,4.9,5.4,37,0.00,,---,0.00,VWS V14.00,2013-11-06 22:12:00,
2013-11-06 15:17:00,48.6,23.5,23.59,ENE,76,5.4,5.4,37,0.00,,---,0.00,VWS V14.00,2013-11-06 22:17:00,
2013-11-06 15:22:00,48.4,23.3,23.59,East,87,3.1,3.1,37,0.00,,---,0.00,VWS V14.00,2013-11-06 22:22:00,
2013-11-06 15:27:00,48.4,23.3,23.59,ESE,104,2.7,6.3,37,0.00,,---,0.00,VWS V14.00,2013-11-06 22:27:00,
2013-11-06 15:32:00,48.2,23.2,23.59,SE,144,6.3,6.3,37,0.00,,---,0.00,VWS V14.00,2013-11-06 22:32:00,
2013-11-06 15:37:00,48.2,23.2,23.59,ESE,105,4.0,5.8,37,0.00,,---,0.00,VWS V14.00,2013-11-06 22:37:00,
2013-11-06 15:42:00,48.2,23.2,23.59,ESE,104,5.4,6.3,37,0.00,,---,0.00,VWS V14.00,2013-11-06 22:42:00,
2013-11-06 15:47:00,48.2,23.2,23.59,ESE,117,3.1,3.6,37,0.00,,---,0.00,VWS V14.00,2013-11-06 22:47:00,
2013-11-06 15:53:00,48.0,23.0,23.59,ESE,110,5.8,6.3,37,0.00,,---,0.00,VWS V14.00,2013-11-06 22:53:00,
2013-11-06 15:58:00,48.0,23.0,23.59,SE,130,3.6,5.8,37,0.00,,---,0.00,VWS V14.00,2013-11-06 22:58:00,
2013-11-06 16:03:00,48.0,23.0,23.59,ENE,60,2.7,5.4,37,0.00,,---,0.00,VWS V14.00,2013-11-06 23:03:00,
2013-11-06 16:08:00,48.0,23.0,23.59,SSE,162,3.1,5.4,37,0.00,,---,0.00,VWS V14.00,2013-11-06 23:08:00,
2013-11-06 16:13:00,47.8,22.9,23.59,SE,131,4.9,6.3,37,0.00,,---,0.00,VWS V14.00,2013-11-06 23:13:00,
2013-11-06 16:18:00,47.7,22.7,23.59,East,81,6.3,8.3,37,0.00,,---,0.00,VWS V14.00,2013-11-06 23:18:00,
2013-11-06 16:23:00,47.7,22.7,23.59,ESE,103,3.6,7.6,37,0.00,,---,0.00,VWS V14.00,2013-11-06 23:23:00,
2013-11-06 16:28:00,47.7,22.7,23.59,ESE,116,5.8,5.8,37,0.00,,---,0.00,VWS V14.00,2013-11-06 23:28:00,
2013-11-06 16:33:00,47.7,22.7,23.59,East,99,0.0,0.0,37,0.00,,---,0.00,VWS V14.00,2013-11-06 23:33:00,
2013-11-06 16:38:00,47.7,22.7,23.59,ESE,111,5.8,5.8,37,0.00,,---,0.00,VWS V14.00,2013-11-06 23:38:00,
2013-11-06 16:43:00,47.3,22.4,23.59,ESE,111,6.3,6.3,37,0.00,,---,0.00,VWS V14.00,2013-11-06 23:43:00,
2013-11-06 16:48:00,46.8,21.9,23.62,SE,128,6.3,6.3,37,0.00,,---,0.00,VWS V14.00,2013-11-06 23:48:00,
2013-11-06 16:53:00,46.6,21.7,23.62,East,100,3.6,4.0,37,0.00,,---,0.00,VWS V14.00,2013-11-06 23:53:00,
2013-11-06 16:58:00,46.0,21.9,23.62,East,100,3.1,3.1,38,0.00,,---,0.00,VWS V14.00,2013-11-06 23:58:00,
2013-11-06 17:03:00,45.5,21.4,23.62,ESE,105,2.7,4.0,38,0.00,,---,0.00,VWS V14.00,2013-11-07 00:03:00,
2013-11-06 17:08:00,45.0,20.9,23.62,SE,139,2.7,3.1,38,0.00,,---,0.00,VWS V14.00,2013-11-07 00:08:00,
2013-11-06 17:13:00,44.1,20.1,23.62,ESE,113,2.7,2.7,38,0.00,,---,0.00,VWS V14.00,2013-11-07 00:13:00,
2013-11-06 17:18:00,43.5,19.6,23.62,East,93,0.0,0.0,38,0.00,,---,0.00,VWS V14.00,2013-11-07 00:18:00,
2013-11-06 17:23:00,42.8,19.0,23.62,East,93,0.0,0.0,38,0.00,,---,0.00,VWS V14.00,2013-11-07 00:23:00,
2013-11-06 17:28:00,42.1,18.9,23.62,ESE,110,0.0,0.0,39,0.00,,---,0.00,VWS V14.00,2013-11-07 00:28:00,
2013-11-06 17:33:00,41.5,18.4,23.62,East,86,0.0,0.0,39,0.00,,---,0.00,VWS V14.00,2013-11-07 00:33:00,
2013-11-06 17:38:00,41.0,18.0,23.62,ESE,120,0.0,0.0,39,0.00,,---,0.00,VWS V14.00,2013-11-07 00:38:00,
2013-11-06 17:43:00,40.5,17.5,23.62,ESE,120,0.0,0.0,39,0.00,,---,0.00,VWS V14.00,2013-11-07 00:43:00,
2013-11-06 17:48:00,39.9,17.0,23.62,ESE,120,0.0,0.0,39,0.00,,---,0.00,VWS V14.00,2013-11-07 00:48:00,
2013-11-06 17:53:00,39.4,16.5,23.62,ESE,120,0.0,0.0,39,0.00,,---,0.00,VWS V14.00,2013-11-07 00:53:00,
2013-11-06 17:58:00,38.8,16.0,23.62,ESE,120,0.0,0.0,39,0.00,,---,0.00,VWS V14.00,2013-11-07 00:58:00,
2013-11-06 18:03:00,38.3,15.5,23.62,ESE,120,0.0,0.0,39,0.00,,---,0.00,VWS V14.00,2013-11-07 01:03:00,
2013-11-06 18:09:00,37.8,15.0,23.62,ESE,120,0.0,0.0,39,0.00,,---,0.00,VWS V14.00,2013-11-07 01:09:00,
2013-11-06 18:14:00,37.4,14.7,23.62,ESE,120,0.0,0.0,39,0.00,,---,0.00,VWS V14.00,2013-11-07 01:14:00,
2013-11-06 18:19:00,37.0,15.0,23.62,ESE,120,0.0,0.0,40,0.00,,---,0.00,VWS V14.00,2013-11-07 01:19:00,
2013-11-06 18:24:00,36.7,14.6,23.62,ESE,120,0.0,0.0,40,0.00,,---,0.00,VWS V14.00,2013-11-07 01:24:00,
2013-11-06 18:29:00,36.1,14.2,23.62,ESE,120,0.0,0.0,40,0.00,,---,0.00,VWS V14.00,2013-11-07 01:29:00,
2013-11-06 18:34:00,35.8,13.8,23.62,ESE,120,0.0,0.0,40,0.00,,---,0.00,VWS V14.00,2013-11-07 01:34:00,
2013-11-06 18:39:00,35.2,13.4,23.62,ESE,120,0.0,0.0,40,0.00,,---,0.00,VWS V14.00,2013-11-07 01:39:00,
2013-11-06 18:44:00,34.9,13.0,23.62,ESE,120,0.0,0.0,40,0.00,,---,0.00,VWS V14.00,2013-11-07 01:44:00,
2013-11-06 18:49:00,34.5,12.7,23.62,ESE,120,0.0,0.0,40,0.00,,---,0.00,VWS V14.00,2013-11-07 01:49:00,
2013-11-06 18:54:00,34.0,12.2,23.62,ESE,120,0.0,0.0,40,0.00,,---,0.00,VWS V14.00,2013-11-07 01:54:00,
2013-11-06 18:59:00,33.8,12.1,23.62,ESE,120,0.0,0.0,40,0.00,,---,0.00,VWS V14.00,2013-11-07 01:59:00,
2013-11-06 19:04:00,33.3,12.1,23.62,ESE,120,0.0,0.0,41,0.00,,---,0.00,VWS V14.00,2013-11-07 02:04:00,
2013-11-06 19:09:00,32.9,11.8,23.62,ESE,120,0.0,0.0,41,0.00,,---,0.00,VWS V14.00,2013-11-07 02:09:00,
2013-11-06 19:14:00,32.5,11.5,23.62,ESE,120,0.0,0.0,41,0.00,,---,0.00,VWS V14.00,2013-11-07 02:14:00,
2013-11-06 19:19:00,32.2,11.1,23.65,ESE,120,0.0,0.0,41,0.00,,---,0.00,VWS V14.00,2013-11-07 02:19:00,
2013-11-06 19:24:00,31.8,10.8,23.65,ESE,120,0.0,0.0,41,0.00,,---,0.00,VWS V14.00,2013-11-07 02:24:00,
2013-11-06 19:29:00,31.5,10.5,23.65,ESE,120,0.0,0.0,41,0.00,,---,0.00,VWS V14.00,2013-11-07 02:29:00,
2013-11-06 19:34:00,31.1,10.2,23.65,ESE,120,0.0,0.0,41,0.00,,---,0.00,VWS V14.00,2013-11-07 02:34:00,
2013-11-06 19:39:00,30.9,10.0,23.65,ESE,120,0.0,0.0,41,0.00,,---,0.00,VWS V14.00,2013-11-07 02:39:00,
2013-11-06 19:44:00,30.6,9.7,23.65,ESE,120,0.0,0.0,41,0.00,,---,0.00,VWS V14.00,2013-11-07 02:44:00,
2013-11-06 19:49:00,30.2,9.4,23.65,ESE,120,0.0,0.0,41,0.00,,---,0.00,VWS V14.00,2013-11-07 02:49:00,
2013-11-06 19:54:00,30.0,9.2,23.65,ESE,120,0.0,0.0,41,0.00,,---,0.00,VWS V14.00,2013-11-07 02:54:00,
2013-11-06 19:59:00,29.8,9.0,23.65,ESE,120,0.0,0.0,41,0.00,,---,0.00,VWS V14.00,2013-11-07 02:59:00,
2013-11-06 20:04:00,29.5,8.7,23.65,ESE,120,0.0,0.0,41,0.00,,---,0.00,VWS V14.00,2013-11-07 03:04:00,
2013-11-06 20:10:00,29.3,8.5,23.65,ESE,120,0.0,0.0,41,0.00,,---,0.00,VWS V14.00,2013-11-07 03:10:00,
2013-11-06 20:15:00,29.1,8.4,23.65,ESE,120,0.0,0.0,41,0.00,,---,0.00,VWS V14.00,2013-11-07 03:15:00,
2013-11-06 20:20:00,28.8,8.0,23.65,ESE,120,0.0,0.0,41,0.00,,---,0.00,VWS V14.00,2013-11-07 03:20:00,
2013-11-06 20:25:00,28.6,7.9,23.65,ESE,120,0.0,0.0,41,0.00,,---,0.00,VWS V14.00,2013-11-07 03:25:00,
2013-11-06 20:30:00,28.6,7.9,23.65,ESE,120,0.0,0.0,41,0.00,,---,0.00,VWS V14.00,2013-11-07 03:30:00,
2013-11-06 20:35:00,28.4,7.7,23.65,ESE,120,0.0,0.0,41,0.00,,---,0.00,VWS V14.00,2013-11-07 03:35:00,
2013-11-06 20:40:00,28.0,7.4,23.65,ESE,120,0.0,0.0,41,0.00,,---,0.00,VWS V14.00,2013-11-07 03:40:00,
2013-11-06 20:45:00,27.9,7.2,23.65,ESE,120,0.0,0.0,41,0.00,,---,0.00,VWS V14.00,2013-11-07 03:45:00,
2013-11-06 20:50:00,27.7,7.1,23.65,ESE,120,0.0,0.0,41,0.00,,---,0.00,VWS V14.00,2013-11-07 03:50:00,
2013-11-06 20:55:00,27.5,6.9,23.65,ESE,120,0.0,0.0,41,0.00,,---,0.00,VWS V14.00,2013-11-07 03:55:00,
2013-11-06 21:00:00,27.3,6.7,23.65,ESE,120,0.0,0.0,41,0.00,,---,0.00,VWS V14.00,2013-11-07 04:00:00,
2013-11-06 21:05:00,27.0,6.4,23.65,ESE,120,0.0,0.0,41,0.00,,---,0.00,VWS V14.00,2013-11-07 04:05:00,
2013-11-06 21:10:00,27.0,6.4,23.65,ESE,120,0.0,0.0,41,0.00,,---,0.00,VWS V14.00,2013-11-07 04:10:00,
2013-11-06 21:15:00,26.8,6.2,23.65,ESE,120,0.0,0.0,41,0.00,,---,0.00,VWS V14.00,2013-11-07 04:15:00,
2013-11-06 21:20:00,26.6,6.6,23.65,ESE,120,0.0,0.0,42,0.00,,---,0.00,VWS V14.00,2013-11-07 04:20:00,
2013-11-06 21:25:00,26.4,6.4,23.65,ESE,120,0.0,0.0,42,0.00,,---,0.00,VWS V14.00,2013-11-07 04:25:00,
2013-11-06 21:30:00,26.2,6.3,23.65,ESE,120,0.0,0.0,42,0.00,,---,0.00,VWS V14.00,2013-11-07 04:30:00,
2013-11-06 21:35:00,26.1,6.1,23.65,ESE,120,0.0,0.0,42,0.00,,---,0.00,VWS V14.00,2013-11-07 04:35:00,
2013-11-06 21:40:00,26.1,6.1,23.65,ESE,120,0.0,0.0,42,0.00,,---,0.00,VWS V14.00,2013-11-07 04:40:00,
2013-11-06 21:45:00,25.9,6.0,23.65,ESE,120,0.0,0.0,42,0.00,,---,0.00,VWS V14.00,2013-11-07 04:45:00,
2013-11-06 21:50:00,25.7,5.8,23.65,ESE,120,0.0,0.0,42,0.00,,---,0.00,VWS V14.00,2013-11-07 04:50:00,
2013-11-06 21:55:00,25.5,5.6,23.65,ESE,120,0.0,0.0,42,0.00,,---,0.00,VWS V14.00,2013-11-07 04:55:00,
2013-11-06 22:01:00,25.5,5.6,23.65,ESE,120,0.0,0.0,42,0.00,,---,0.00,VWS V14.00,2013-11-07 05:01:00,
2013-11-06 22:02:00,25.3,5.5,23.65,ESE,120,0.0,0.0,42,0.00,,---,0.00,VWS V14.00,2013-11-07 05:02:00,
2013-11-06 22:03:00,25.3,5.5,23.65,ESE,120,0.0,0.0,42,0.00,,---,0.00,VWS V14.00,2013-11-07 05:03:00,
2013-11-06 22:05:00,25.3,5.5,23.65,ESE,120,0.0,0.0,42,0.00,,---,0.00,VWS V14.00,2013-11-07 05:05:00,
2013-11-06 22:08:00,25.3,5.5,23.65,ESE,120,0.0,0.0,42,0.00,,---,0.00,VWS V14.00,2013-11-07 05:08:00,
2013-11-06 22:13:00,25.2,5.3,23.65,ESE,120,0.0,0.0,42,0.00,,---,0.00,VWS V14.00,2013-11-07 05:13:00,
2013-11-06 22:18:00,25.0,5.1,23.65,ESE,120,0.0,0.0,42,0.00,,---,0.00,VWS V14.00,2013-11-07 05:18:00,
2013-11-06 22:23:00,25.0,5.1,23.65,ESE,120,0.0,0.0,42,0.00,,---,0.00,VWS V14.00,2013-11-07 05:23:00,
2013-11-06 22:28:00,24.8,5.0,23.65,ESE,120,0.0,0.0,42,0.00,,---,0.00,VWS V14.00,2013-11-07 05:28:00,
2013-11-06 22:33:00,24.6,4.8,23.65,ESE,120,0.0,0.0,42,0.00,,---,0.00,VWS V14.00,2013-11-07 05:33:00,
2013-11-06 22:38:00,24.4,4.7,23.65,ESE,120,0.0,0.0,42,0.00,,---,0.00,VWS V14.00,2013-11-07 05:38:00,
2013-11-06 22:43:00,24.4,4.7,23.65,ESE,120,0.0,0.0,42,0.00,,---,0.00,VWS V14.00,2013-11-07 05:43:00,
2013-11-06 22:48:00,24.3,4.5,23.65,ESE,120,0.0,0.0,42,0.00,,---,0.00,VWS V14.00,2013-11-07 05:48:00,
2013-11-06 22:53:00,24.1,4.3,23.65,ESE,120,0.0,0.0,42,0.00,,---,0.00,VWS V14.00,2013-11-07 05:53:00,
2013-11-06 22:58:00,24.1,4.3,23.65,ESE,120,0.0,0.0,42,0.00,,---,0.00,VWS V14.00,2013-11-07 05:58:00,
2013-11-06 23:03:00,23.9,4.2,23.65,ESE,120,0.0,0.0,42,0.00,,---,0.00,VWS V14.00,2013-11-07 06:03:00,
2013-11-06 23:08:00,23.9,4.2,23.65,ESE,120,0.0,0.0,42,0.00,,---,0.00,VWS V14.00,2013-11-07 06:08:00,
2013-11-06 23:14:00,23.7,4.0,23.65,ESE,120,0.0,0.0,42,0.00,,---,0.00,VWS V14.00,2013-11-07 06:14:00,
2013-11-06 23:19:00,23.5,3.8,23.65,ESE,120,0.0,0.0,42,0.00,,---,0.00,VWS V14.00,2013-11-07 06:19:00,
2013-11-06 23:24:00,23.5,3.8,23.65,ESE,120,0.0,0.0,42,0.00,,---,0.00,VWS V14.00,2013-11-07 06:24:00,
2013-11-06 23:29:00,23.4,3.7,23.65,ESE,120,0.0,0.0,42,0.00,,---,0.00,VWS V14.00,2013-11-07 06:29:00,
2013-11-06 23:34:00,23.2,3.5,23.65,ESE,120,0.0,0.0,42,0.00,,---,0.00,VWS V14.00,2013-11-07 06:34:00,
2013-11-06 23:39:00,23.0,3.8,23.65,ESE,120,0.0,0.0,43,0.00,,---,0.00,VWS V14.00,2013-11-07 06:39:00,
2013-11-06 23:44:00,23.0,3.8,23.65,ESE,120,0.0,0.0,43,0.00,,---,0.00,VWS V14.00,2013-11-07 06:44:00,
2013-11-06 23:49:00,23.0,3.8,23.65,ESE,120,0.0,0.0,43,0.00,,---,0.00,VWS V14.00,2013-11-07 06:49:00,
2013-11-06 23:54:00,22.8,3.7,23.65,ESE,120,0.0,0.0,43,0.00,,---,0.00,VWS V14.00,2013-11-07 06:54:00,
2013-11-06 23:59:00,22.6,3.5,23.65,ESE,120,0.0,0.0,43,0.00,,---,0.00,VWS V14.00,2013-11-07 06:59:00,